Flag for Guernsey Weather past 2 weeks in St. Peter Port, Guernsey

Now
46 °F

Clear.


Feels Like: 40 °F
Forecast: 46 / 54 °F
Wind: 14 mph from South

Location: Guernsey Airport

Current Time: Mar 7, 2015 at 2:31:57 AM

Latest Report: Mar 7, 2015 at 1:50 AM


Visibility: 10 mi

Pressure: 30.39 "Hg

Humidity: 82%

Dew point: 41 °F

Location of St. Peter PortLocation

Historic Weather in St. Peter Port — Graph

°F

St. Peter Port temperature yesterday

Maximum temperature yesterday: 50 °F (at 1:50 PM)
Minimum temperature yesterday: 41 °F (at 4:20 AM)
Average temperature yesterday: 47 °F

Past Weeks' High & Low Weather Summary

 TemperatureHumidityPressure
High52 °F (Feb 25, 1:20 PM)100% (Feb 19, 8:20 PM)30.77 "Hg (Feb 19, 8:20 PM)
Low37 °F (Feb 22, 4:20 AM)57% (Mar 2, 12:20 PM)29.42 "Hg (Feb 23, 4:20 AM)
Average46 °F85%30.00 "Hg
* Reported Feb 19 8:20 PM — Mar 6 8:50 PM, St. Peter Port, Weather by CustomWeather, © 2015

Note: Actual official high and low records may vary slightly from our data, if they occured in-between our weather recording intervals... More about our weather records

Advertising

St. Peter Port weather history for previous 24 hours

 ConditionsComfort  
Time TempWeatherWind HumidityBarometerVisibility
8:50 PM
Fri, Mar 6
46 °FClear.13 mph87%30.48 "Hg10 mi
8:20 PM46 °FClear.10 mph87%30.48 "Hg10 mi
7:50 PM46 °FPassing clouds.9 mph87%30.48 "HgN/A
7:20 PM48 °FClear.9 mph82%30.48 "Hg10 mi
6:50 PM46 °FPassing clouds.8 mph87%30.48 "HgN/A
6:20 PM46 °FPassing clouds.8 mph87%30.45 "HgN/A
5:50 PM46 °FSunny.12 mph87%30.45 "Hg10 mi
5:20 PM48 °FSunny.10 mph82%30.45 "Hg10 mi
4:50 PM48 °FSunny.10 mph82%30.48 "Hg10 mi
4:20 PM50 °FSunny.12 mph76%30.48 "Hg10 mi
3:50 PM50 °FSunny.10 mph76%30.51 "Hg10 mi
3:20 PM50 °FSunny.10 mph76%30.51 "Hg10 mi
2:50 PM50 °FSunny.12 mph82%30.51 "Hg10 mi
2:20 PM50 °FSunny.10 mph76%30.54 "Hg10 mi
1:50 PM50 °FSunny.13 mph76%30.54 "Hg10 mi
1:20 PM48 °FSunny.16 mph82%30.51 "Hg10 mi
12:50 PM48 °FSunny.16 mph82%30.54 "Hg10 mi
12:20 PM48 °FSunny.16 mph82%30.54 "Hg10 mi
11:50 AM48 °FSunny.17 mph76%30.57 "Hg10 mi
11:20 AM48 °FSunny.13 mph82%30.60 "Hg10 mi
10:50 AM48 °FSunny.13 mph82%30.60 "Hg10 mi
10:20 AM48 °FSunny.12 mph76%30.63 "Hg10 mi
9:50 AM46 °FSunny.10 mph82%30.63 "Hg10 mi
9:20 AM46 °FSunny.12 mph82%30.63 "Hg10 mi
8:50 AM46 °FPassing clouds.13 mph82%30.63 "HgN/A
8:20 AM45 °FPassing clouds.12 mph87%30.63 "HgN/A
7:50 AM45 °FPassing clouds.9 mph87%30.63 "HgN/A
7:20 AM43 °FPassing clouds.9 mph93%30.63 "HgN/A
6:50 AM43 °FSunny.8 mph87%30.63 "Hg10 mi
6:20 AM43 °FClear.7 mph87%30.63 "Hg10 mi
5:50 AM43 °FClear.7 mph87%30.63 "Hg10 mi
5:20 AM41 °FClear.7 mph100%30.63 "Hg10 mi
4:50 AM41 °FClear.7 mph100%30.63 "Hg10 mi
4:20 AM41 °FPassing clouds.7 mph93%30.66 "HgN/A
Weather by CustomWeather, © 2015

See weather overviewHow to use our weather pages